GFSNIL_sfc_thetae_000.txt.gz
Theta_e
293 292 289 288 287 286 285 285 284 283 283 283 283 283 282 282 282 281 281 280 280 280
291 290 289 287 285 285 284 285 283 283 282 282 282 282 281 281 281 280 280 280 280 279
287 287 286 285 284 283 283 283 282 282 282 282 282 281 281 280 281 280 280 281 279 279
285 285 284 283 283 282 282 282 282 282 282 281 281 280 280 279 281 280 280 280 280 279
284 283 282 282 282 282 281 282 282 282 281 281 281 280 279 280 280 280 279 279 279 279
283 282 281 281 282 282 282 281 281 281 281 280 280 280 280 280 280 280 279 279 278 279
282 281 281 282 282 282 281 281 281 280 280 280 280 280 280 281 280 279 279 279 279 279
282 282 282 282 281 281 281 280 281 280 279 279 280 282 283 282 281 278 278 278 279 280
282 282 282 281 281 281 280 280 279 279 278 278 281 286 288 286 280 279 278 277 278 279
283 282 281 280 280 280 279 278 277 277 277 276 277 286 287 287 281 279 278 279 279 280
282 281 280 279 279 278 277 277 277 276 276 276 278 285 286 287 280 279 278 279 278 278
281 280 279 278 277 277 276 276 275 276 276 275 276 284 285 285 279 279 279 279 279 279
280 279 277 277 276 276 275 276 277 277 276 279 275 282 285 284 280 278 279 280 280 284
278 277 276 276 275 274 274 275 274 275 275 275 277 278 285 285 282 280 281 280 280 281

GFSNIL_sfc_thetae_003.txt.gz
Theta_e
297 295 294 293 292 291 290 289 288 288 288 288 288 288 288 288 288 287 287 286 286 286
294 294 293 291 291 290 289 288 287 288 287 287 287 287 287 287 286 287 287 286 286 285
293 293 291 290 289 288 288 287 287 287 287 287 286 286 286 286 286 286 286 286 285 285
291 290 289 288 287 287 286 287 286 286 286 286 285 285 285 285 285 285 285 285 285 284
289 288 287 286 286 286 286 286 286 286 285 285 284 284 284 284 285 284 284 284 284 284
287 286 285 285 285 285 285 285 285 285 284 284 284 283 284 284 285 284 284 283 283 283
286 285 285 285 285 285 285 285 285 284 283 283 283 283 284 285 285 284 284 283 283 283
285 285 285 284 284 284 285 284 284 283 282 282 283 283 286 286 285 284 283 283 283 283
285 285 284 284 284 284 284 283 283 282 281 281 282 285 287 287 285 284 283 282 283 284
285 283 283 283 283 283 282 282 281 281 281 280 281 285 287 287 285 283 283 283 283 283
283 282 282 282 282 281 281 281 280 280 280 280 281 285 286 286 284 283 283 284 283 283
283 282 282 281 281 280 280 280 279 280 280 279 281 284 285 285 284 283 283 284 284 283
282 282 281 280 280 279 279 280 280 280 280 280 280 282 284 285 283 282 282 283 284 284
281 280 279 279 279 278 279 278 278 279 279 280 280 281 284 285 283 282 282 282 282 283

GFSNIL_sfc_thetae_006.txt.gz
Theta_e
301 301 299 300 300 299 298 296 295 294 294 293 293 293 293 294 293 293 292 291 291 290
301 303 302 299 300 299 297 294 294 294 293 293 292 292 292 293 292 291 291 291 291 290
303 301 299 299 297 296 294 293 293 292 292 292 292 291 291 291 291 290 291 290 290 289
295 296 297 297 295 294 293 292 292 292 291 291 291 290 290 290 290 289 289 289 288 288
296 297 296 294 293 293 292 292 291 291 291 290 289 289 289 289 289 288 288 288 287 287
296 295 293 292 291 291 291 290 290 290 290 289 288 288 288 288 289 288 288 287 286 285
294 293 292 291 290 290 290 290 290 289 288 288 287 287 287 288 289 288 288 287 287 286
292 291 290 290 289 289 290 289 289 288 287 287 287 287 288 289 289 288 287 287 286 286
290 290 289 289 289 289 288 288 287 287 286 286 286 285 287 288 287 287 286 285 286 286
289 288 288 288 288 288 287 287 286 286 286 285 285 285 287 287 287 286 286 285 285 285
288 287 287 287 287 286 286 286 286 285 285 284 284 284 286 286 286 286 286 286 285 285
287 286 286 286 286 285 286 285 285 284 284 283 284 283 285 286 285 285 285 285 285 285
287 286 286 286 285 284 285 284 284 283 284 282 283 283 284 285 285 284 284 285 285 286
286 285 285 284 284 284 284 283 283 282 283 283 283 283 284 285 284 284 283 283 283 285

GFSNIL_sfc_thetae_009.txt.gz
Theta_e
312 309 304 300 298 299 298 299 298 298 297 296 295 295 295 295 294 293 293 293 292 292
308 305 301 300 301 299 300 298 297 296 295 295 294 294 294 293 292 292 293 292 292 291
304 301 302 301 300 298 297 296 295 295 294 294 293 293 293 292 292 291 292 292 290 290
301 300 299 300 298 296 296 295 294 294 293 293 293 292 291 291 291 290 291 291 290 289
299 298 298 297 296 296 294 294 293 293 292 292 291 291 290 290 291 290 289 289 289 288
296 298 297 295 295 294 293 292 292 292 291 290 290 289 289 289 289 289 289 289 287 287
296 294 294 294 293 293 292 291 291 291 290 289 289 288 288 289 289 289 289 289 288 287
295 295 293 292 292 292 292 291 290 289 289 288 288 288 287 288 289 288 288 288 287 287
294 292 291 291 291 291 290 289 289 288 287 287 287 286 287 288 287 287 286 286 286 286
291 290 290 290 290 289 288 288 287 287 286 286 286 285 287 287 286 285 286 286 285 285
290 289 290 289 288 288 288 287 286 286 285 285 286 284 285 287 285 285 286 286 285 285
289 289 288 287 287 287 286 285 285 285 285 284 284 284 285 285 284 284 284 285 285 285
289 288 287 286 285 285 285 284 284 284 284 284 283 284 284 285 284 283 283 284 285 287
288 287 286 285 285 285 284 284 283 283 284 284 284 283 284 285 283 283 283 283 283 284

GFSNIL_sfc_thetae_012.txt.gz
Theta_e
308 301 299 299 298 296 296 296 297 296 292 291 292 291 291 290 290 288 288 286 287 287
306 303 300 300 298 297 297 296 297 294 290 290 290 290 290 289 288 287 287 286 286 286
306 303 300 299 298 297 297 295 294 291 290 289 289 289 289 288 288 286 286 287 285 285
302 300 300 299 297 296 295 294 293 290 289 289 289 288 287 287 287 286 286 286 286 285
300 299 299 296 295 294 293 292 291 289 289 289 288 287 286 286 286 286 285 285 285 284
297 296 295 294 294 293 291 291 288 289 288 288 287 287 285 285 285 285 285 284 283 283
296 295 293 293 292 292 290 288 288 288 287 287 287 286 286 286 285 285 285 286 284 283
294 294 292 291 292 292 289 287 287 287 286 286 286 287 285 286 285 284 283 283 284 284
291 290 290 290 289 288 286 286 287 286 285 284 286 288 288 287 284 283 282 281 282 283
292 291 289 288 287 286 285 286 285 284 284 283 284 287 286 287 283 282 281 281 281 282
289 288 288 286 286 286 285 283 283 283 284 284 284 286 286 286 282 281 281 281 281 280
289 287 286 285 284 283 282 283 283 284 283 281 280 285 285 284 280 280 279 281 281 281
287 286 284 282 282 283 283 283 283 282 280 283 279 284 285 284 281 278 279 280 281 286
285 283 283 283 283 282 281 280 279 279 279 279 280 279 285 285 281 280 280 279 279 280

GFSNIL_sfc_thetae_015.txt.gz
Theta_e
309 305 304 303 301 300 299 299 298 296 295 295 294 290 290 289 288 287 287 286 286 287
305 303 301 302 301 301 299 299 296 295 294 293 293 289 289 288 286 286 286 286 286 286
303 301 300 299 298 299 298 297 295 294 293 291 291 288 288 286 286 286 286 286 285 284
303 300 299 299 298 298 298 297 294 292 291 291 288 287 287 286 286 285 286 285 285 284
301 300 299 298 298 298 296 295 294 292 291 289 287 286 285 285 285 285 285 284 284 284
300 299 298 297 297 295 294 293 293 291 289 288 286 285 285 284 285 285 284 283 283 283
298 296 295 295 294 293 292 292 290 289 288 287 286 286 286 286 284 284 284 284 283 282
294 294 293 293 292 292 291 289 288 287 286 285 286 287 285 286 284 283 283 282 282 282
291 291 292 292 293 292 288 287 287 285 284 284 287 290 290 287 284 283 281 280 281 282
291 290 290 289 288 287 286 285 283 283 284 284 286 289 288 287 283 281 280 280 280 281
290 289 289 288 286 285 285 284 283 283 283 283 286 288 287 287 280 280 280 280 279 279
290 288 288 286 286 285 284 283 282 282 282 282 283 286 286 284 280 280 279 280 280 281
288 286 285 284 283 282 282 281 283 282 280 283 278 285 285 283 280 278 278 279 280 285
286 284 282 282 281 280 282 281 278 277 277 278 279 279 284 285 280 279 279 279 280 280

GFSNIL_sfc_thetae_018.txt.gz
Theta_e
315 311 309 307 305 302 301 301 301 299 297 295 295 294 291 289 290 286 286 285 286 286
308 307 305 305 303 303 302 301 300 297 296 295 294 293 291 290 287 286 285 285 285 285
308 307 306 304 303 302 301 300 298 296 295 295 293 292 291 289 286 285 285 285 285 284
305 303 304 303 302 300 300 298 295 295 294 293 291 290 289 286 286 285 284 285 285 284
301 301 301 300 299 300 297 297 295 294 293 291 290 289 287 287 285 285 284 284 284 284
300 301 300 298 297 297 295 294 294 293 292 291 289 287 286 285 284 284 284 284 284 283
300 300 298 297 296 295 294 293 292 292 290 288 287 286 286 285 284 284 285 285 283 282
296 297 295 294 293 293 293 291 290 288 287 287 287 287 286 285 284 284 283 283 283 283
292 292 291 291 289 289 288 288 288 287 286 286 289 291 290 286 284 284 282 282 281 281
291 289 289 289 288 288 287 287 286 285 285 286 287 291 290 287 284 282 280 280 279 280
290 289 289 288 287 286 286 285 284 284 284 285 287 289 288 286 281 280 278 279 279 278
290 289 288 287 286 286 285 285 285 284 283 284 285 287 287 283 279 279 278 279 279 280
290 288 287 287 286 285 285 283 283 281 282 284 280 286 285 283 280 278 278 279 280 284
286 286 285 284 282 281 281 281 280 278 277 277 278 278 285 285 280 279 279 279 279 280

GFSNIL_sfc_thetae_021.txt.gz
Theta_e
320 316 315 312 311 310 306 304 301 301 300 298 296 295 294 293 290 289 288 287 286 285
315 310 310 310 309 308 306 302 301 299 297 296 295 295 294 292 289 289 287 287 286 286
311 309 307 305 304 302 301 301 299 297 296 296 295 294 293 291 289 289 288 288 286 284
306 306 304 303 302 301 301 300 299 298 296 294 293 292 291 289 288 287 287 287 286 284
305 303 303 303 301 301 300 299 297 295 294 293 292 291 290 290 289 287 286 285 285 284
303 301 300 299 299 300 299 297 296 294 292 291 291 290 289 288 287 286 286 284 284 284
300 299 297 299 300 299 297 295 293 292 291 290 289 288 288 287 286 285 285 285 284 284
299 299 299 297 296 296 294 292 290 289 288 288 288 289 287 287 285 284 284 284 284 284
295 294 294 293 293 291 289 289 289 288 288 288 289 291 290 287 284 284 283 282 282 282
292 291 290 290 291 289 289 288 287 287 288 288 290 292 290 288 284 282 282 282 280 280
289 289 289 288 287 287 287 286 286 286 286 286 288 289 289 286 282 281 280 280 278 278
290 289 288 287 286 286 286 285 285 285 285 285 286 289 288 284 281 280 279 279 279 279
289 288 287 287 286 286 287 285 285 284 284 286 284 287 286 284 279 277 278 278 280 284
288 288 287 287 286 285 284 282 280 279 278 278 279 278 285 285 280 279 279 279 279 280

GFSNIL_sfc_thetae_024.txt.gz
Theta_e
326 320 317 315 316 313 311 309 308 304 303 302 299 297 296 295 294 293 291 289 289 288
323 318 313 311 312 312 310 309 304 304 302 300 297 296 296 295 292 292 289 288 288 288
314 320 312 307 308 309 307 304 302 302 300 299 297 296 295 292 290 290 289 289 288 287
309 307 307 305 304 303 302 302 302 301 299 298 296 294 293 291 290 289 288 288 288 287
306 303 302 301 300 299 299 299 299 299 297 295 294 293 291 290 289 288 288 287 287 286
302 301 301 302 301 301 299 298 298 297 295 293 292 290 290 290 290 289 289 288 287 285
303 302 302 301 301 299 298 296 295 294 292 291 291 290 289 288 287 287 286 286 285 285
300 300 300 298 297 296 295 293 291 291 290 290 290 290 288 288 287 286 285 285 284 284
295 295 295 294 292 291 290 290 290 290 289 289 291 293 292 287 285 284 283 282 283 282
290 290 290 291 291 289 289 290 289 290 289 289 291 293 291 288 284 283 282 282 282 282
289 289 289 290 289 289 289 289 288 288 289 289 291 291 290 287 283 282 281 282 281 280
290 288 288 286 285 286 285 285 285 286 286 285 286 290 288 284 282 281 280 281 280 280
288 287 286 286 286 286 286 285 285 285 285 288 285 288 288 284 281 279 279 278 279 283
288 287 286 285 286 285 284 282 282 281 280 280 280 282 286 287 280 280 279 279 279 280

GFSNIL_sfc_thetae_027.txt.gz
Theta_e
323 326 323 323 323 322 319 319 319 315 313 312 310 308 305 303 302 300 299 295 293 292
320 323 321 319 318 321 319 317 316 312 310 310 308 306 302 302 300 297 294 293 293 292
312 318 321 317 316 316 317 314 310 309 308 306 305 303 302 299 296 293 292 292 291 291
306 310 315 317 315 314 312 309 307 307 305 303 302 301 299 295 293 291 291 290 290 288
306 308 310 310 311 309 308 305 305 303 301 301 299 299 296 293 292 290 289 289 289 287
306 307 306 306 305 305 304 303 301 300 299 297 295 294 293 291 291 290 289 289 289 288
302 304 306 304 303 302 301 299 298 297 294 292 292 291 291 290 289 288 287 287 286 286
300 300 299 297 297 295 294 293 293 292 291 291 291 291 289 289 288 287 286 285 285 285
294 294 293 292 292 292 292 292 292 291 291 292 293 295 293 290 287 286 285 284 284 284
292 291 291 292 291 290 290 291 290 291 291 291 292 294 292 290 286 285 284 284 283 283
290 290 290 290 289 289 290 290 290 290 290 290 291 293 291 288 284 283 283 283 283 283
289 288 287 286 287 287 286 286 285 285 285 285 287 290 288 284 283 282 282 282 282 283
288 287 286 286 285 286 286 285 285 285 285 288 287 289 287 284 282 281 281 282 282 283
288 286 286 285 285 284 284 283 282 281 282 282 284 286 288 285 282 282 281 281 281 282

GFSNIL_sfc_thetae_030.txt.gz
Theta_e
317 316 323 326 325 325 325 325 327 324 324 323 323 322 319 315 312 306 303 302 299 296
313 319 323 325 325 325 324 324 325 325 322 321 320 319 317 315 312 310 308 305 299 295
312 313 316 322 320 320 321 321 321 321 320 318 315 314 313 310 309 305 301 298 295 293
311 312 313 314 317 318 318 319 318 317 315 313 311 309 307 304 302 298 294 293 292 289
311 313 314 314 315 315 314 314 313 313 310 309 307 305 303 298 296 294 291 292 290 288
309 311 312 311 312 311 310 310 309 309 306 304 302 300 299 296 293 292 291 290 290 289
305 307 308 308 307 306 307 305 305 303 300 298 297 295 293 292 291 291 290 290 288 288
298 300 300 299 298 298 297 296 296 295 293 293 292 292 291 290 289 288 287 287 287 286
293 294 295 294 293 293 293 293 293 293 292 292 293 294 293 291 289 288 286 285 285 285
292 291 291 292 291 291 291 292 292 293 294 293 294 295 294 291 288 286 285 285 284 285
290 289 290 289 289 289 291 291 291 290 291 291 293 293 291 288 284 284 284 284 284 284
289 288 288 286 286 286 286 286 285 286 286 285 285 289 288 285 283 283 283 284 284 284
289 288 287 287 286 286 286 285 287 285 285 288 285 288 286 285 283 283 283 284 284 283
289 287 287 286 287 286 285 285 285 284 284 286 288 288 287 285 285 284 283 283 283 284

GFSNIL_sfc_thetae_033.txt.gz
Theta_e
314 316 316 317 323 326 324 324 327 326 326 326 325 324 324 322 319 316 313 312 309 304
312 313 315 321 323 324 324 324 325 326 324 324 323 322 321 318 315 313 312 309 306 303
312 313 313 314 317 320 319 320 319 321 321 321 320 320 317 315 313 311 309 306 300 296
310 312 313 313 313 314 317 317 317 317 317 316 316 314 312 309 308 305 299 298 295 293
309 311 312 313 314 315 314 315 314 314 314 313 312 309 307 302 301 297 295 294 293 290
306 307 308 310 312 312 312 311 311 310 309 307 306 304 302 298 297 295 294 293 292 290
299 301 302 304 304 306 306 306 305 303 302 301 299 296 295 294 293 292 291 291 291 290
295 297 297 297 297 298 297 297 296 295 295 294 294 293 293 292 290 289 288 288 288 288
294 294 293 294 294 294 294 294 294 293 293 293 293 294 293 291 290 288 287 286 286 287
292 291 292 292 292 292 292 293 292 293 294 293 294 295 294 291 288 286 285 285 285 286
290 290 290 289 289 288 288 288 288 288 289 290 291 293 291 289 285 284 284 284 284 284
290 288 288 286 286 287 286 286 285 286 285 285 286 290 289 286 284 283 283 284 284 284
289 288 287 287 286 287 287 286 286 285 286 287 285 288 287 285 284 283 283 284 284 284
289 289 288 287 287 285 285 285 285 285 286 287 288 287 287 287 285 283 283 282 282 283

GFSNIL_sfc_thetae_036.txt.gz
Theta_e
306 307 308 310 310 312 318 320 323 326 326 326 326 325 323 322 320 316 313 312 310 306
306 306 307 307 308 315 317 318 317 317 321 323 323 323 321 321 319 316 313 312 309 304
304 306 307 307 306 307 311 312 314 314 315 317 319 318 317 315 314 311 309 307 305 299
302 305 307 307 308 308 310 310 311 311 311 313 314 313 311 309 308 304 301 300 299 296
300 302 303 305 307 308 308 308 308 308 308 307 306 305 304 301 301 298 296 295 294 293
297 298 299 300 300 301 303 304 303 302 301 301 300 300 299 297 296 296 295 294 293 292
295 296 297 297 297 295 295 294 294 294 293 293 293 293 293 293 292 292 292 292 291 290
294 295 295 295 295 295 294 292 292 293 293 293 293 293 292 291 291 289 288 288 288 288
293 293 293 293 293 294 294 294 292 293 293 293 294 295 294 291 288 288 287 286 286 287
291 290 290 290 290 290 290 291 290 292 292 292 293 294 293 291 287 286 285 285 286 286
290 289 289 288 288 288 288 288 288 287 288 289 291 293 292 289 285 284 284 285 284 284
289 288 287 286 286 287 286 285 285 285 286 286 287 291 289 286 284 283 283 284 284 284
289 288 287 287 286 286 286 284 285 285 285 287 283 288 288 285 283 280 281 282 283 285
289 288 287 286 286 285 285 281 276 278 283 284 283 283 288 287 282 280 280 279 280 281

GFSNIL_sfc_thetae_039.txt.gz
Theta_e
303 304 305 305 305 307 310 315 319 324 325 325 325 323 324 322 320 316 315 313 310 309
301 302 304 305 305 305 308 315 314 315 315 316 318 319 321 319 318 317 314 313 312 308
300 303 304 305 305 306 308 310 311 311 311 311 313 314 314 313 312 312 309 308 306 302
298 299 301 301 303 304 307 307 307 307 307 307 307 308 306 304 304 303 302 301 301 297
295 297 296 296 297 297 300 301 302 302 301 301 302 301 300 299 298 297 297 296 295 293
294 294 295 296 297 296 295 294 294 294 293 293 294 296 297 297 295 295 295 294 293 292
293 294 295 296 296 294 292 292 292 291 292 292 292 292 293 293 291 291 291 291 291 291
293 293 294 294 295 295 294 292 291 291 292 292 293 293 291 291 290 289 288 289 289 289
292 292 292 293 293 293 292 292 291 291 293 293 294 295 294 290 288 288 287 286 287 288
291 290 290 291 290 290 289 290 289 290 291 291 293 294 293 291 287 286 285 286 286 286
289 289 289 289 288 288 288 287 287 287 288 290 292 293 291 289 285 285 284 285 284 284
289 288 288 286 286 286 285 284 285 286 286 286 287 291 290 286 282 279 280 282 282 282
289 288 287 286 285 286 286 285 285 284 279 286 276 288 288 282 278 276 279 280 280 286
288 287 286 286 286 285 276 275 275 281 282 279 282 283 288 286 280 278 278 278 278 280

GFSNIL_sfc_thetae_042.txt.gz
Theta_e
300 301 303 303 303 303 305 310 314 317 318 318 319 321 321 317 316 318 317 316 312 310
300 301 302 303 304 305 306 310 311 311 311 312 313 315 315 313 313 316 315 314 313 310
297 299 300 300 300 303 305 307 308 307 308 308 308 309 309 307 307 307 306 309 309 304
295 296 296 296 296 298 300 302 303 303 303 303 302 302 302 301 300 303 302 301 301 298
294 294 294 294 295 295 294 294 295 296 296 297 297 297 296 295 295 298 297 296 295 294
292 292 293 294 294 293 293 292 292 292 292 292 293 293 293 293 293 293 294 294 293 292
292 292 295 295 295 295 292 291 291 291 291 291 291 291 291 290 288 288 290 291 291 291
293 294 294 294 294 294 294 291 290 291 291 291 292 292 289 289 289 289 288 289 290 290
292 292 292 292 292 292 291 291 292 292 291 292 293 294 293 289 287 288 287 286 287 288
291 290 290 290 290 289 289 289 289 290 291 291 292 293 292 291 285 285 284 285 285 286
290 289 289 289 288 287 287 287 287 288 288 290 291 293 291 289 284 282 279 281 279 281
289 288 288 287 286 286 285 285 285 286 286 286 286 290 289 282 276 276 276 280 280 280
289 288 287 286 286 286 286 285 285 277 277 285 274 288 288 281 278 275 278 278 279 286
288 287 287 286 283 277 273 279 282 282 281 277 281 282 287 286 280 278 278 278 278 280

GFSNIL_sfc_thetae_045.txt.gz
Theta_e
300 301 302 302 302 302 302 304 310 313 313 313 315 316 316 314 313 313 316 315 311 310
297 299 299 300 302 304 304 309 308 308 308 308 310 311 311 311 311 314 313 312 312 310
295 297 296 296 297 300 301 303 304 304 304 304 304 304 303 302 304 306 305 305 304 302
294 295 295 295 294 295 295 296 298 299 300 299 299 299 298 297 299 301 300 299 298 296
293 293 293 293 293 294 292 293 293 294 294 295 295 294 294 294 294 294 294 295 295 294
291 291 292 293 293 292 291 291 291 292 291 291 291 291 291 291 290 290 291 290 290 290
291 291 293 295 295 294 293 290 290 291 291 290 289 289 289 288 287 287 288 289 289 289
293 294 294 294 294 294 293 290 289 290 291 291 292 291 287 288 289 289 289 288 289 291
292 292 292 292 291 291 291 291 291 291 291 292 293 294 293 290 288 288 287 286 286 288
291 290 290 290 289 289 289 290 289 290 291 291 292 293 292 290 285 281 281 281 281 284
290 290 289 289 287 287 288 287 288 288 289 289 291 292 291 288 280 278 278 279 277 279
290 289 288 286 286 286 286 285 285 285 284 278 279 289 287 281 275 276 275 279 279 280
289 288 287 286 285 286 286 285 279 274 274 284 273 288 287 280 278 274 277 277 279 285
289 287 287 286 285 283 282 283 282 276 274 276 281 281 287 287 280 278 278 278 279 280

GFSNIL_sfc_thetae_048.txt.gz
Theta_e
299 301 301 301 302 303 303 305 306 309 309 310 312 313 317 316 315 313 315 313 313 312
296 297 297 298 300 302 302 306 305 305 306 306 307 308 311 311 310 309 309 308 308 307
294 295 295 295 295 297 297 300 301 301 302 301 301 302 301 304 306 305 304 304 302 300
293 294 294 294 293 294 294 294 295 297 297 297 296 297 297 297 301 301 299 298 297 295
292 292 292 292 292 292 291 292 292 293 293 293 293 292 292 292 292 292 292 291 291 291
290 290 290 291 292 292 291 290 291 291 290 290 290 289 289 289 288 288 288 288 288 288
289 290 292 294 294 294 293 291 290 290 290 289 288 288 287 288 289 289 290 290 291 289
293 294 294 293 293 293 293 292 291 292 292 292 292 290 289 290 290 289 289 289 289 291
292 292 292 292 291 291 291 291 292 291 291 291 292 293 293 290 288 288 287 286 285 287
291 291 290 290 290 289 289 290 290 291 291 291 292 293 292 289 282 280 279 279 280 283
290 290 289 288 288 288 288 288 288 287 287 286 289 291 290 287 278 276 275 277 275 278
290 289 288 287 286 287 286 286 285 281 278 276 277 288 287 280 273 275 274 278 279 280
290 288 287 286 286 286 286 284 279 274 272 284 273 288 286 279 277 274 277 277 278 285
289 288 287 286 285 284 283 278 274 273 273 276 280 280 287 287 280 279 278 278 279 280

GFSNIL_sfc_thetae_051.txt.gz
Theta_e
303 304 305 305 306 307 308 309 311 312 313 313 315 318 320 318 318 320 318 316 316 315
300 301 301 301 303 306 305 306 307 308 309 309 310 313 314 314 312 312 311 312 312 309
299 299 299 299 299 300 300 301 303 304 304 304 305 306 309 309 308 307 307 306 305 303
297 297 298 297 297 297 297 297 298 299 300 300 300 301 303 303 304 304 302 301 301 299
296 296 296 296 295 295 295 295 296 296 296 296 296 297 298 297 297 297 296 296 296 295
294 295 295 295 295 295 295 294 294 294 293 293 293 293 293 293 292 292 292 293 293 292
293 294 295 296 295 295 294 293 293 293 292 292 291 291 291 292 292 292 292 293 293 293
294 295 295 294 294 294 293 293 293 293 293 293 293 291 291 292 291 291 290 290 291 292
294 293 293 292 292 292 292 292 292 292 293 293 293 294 293 291 290 289 288 287 287 288
293 292 291 291 291 290 291 291 291 292 292 292 292 293 292 289 286 284 284 284 286 286
292 290 290 290 289 289 290 289 289 288 289 290 290 291 289 286 283 282 282 283 283 285
291 290 289 288 288 288 288 286 285 284 284 284 285 288 287 283 282 281 281 283 284 285
291 290 288 288 287 287 287 285 284 281 281 285 282 287 286 283 282 280 281 281 282 285
290 289 288 287 287 286 285 282 280 281 280 281 284 284 288 286 283 282 281 281 282 283

GFSNIL_sfc_thetae_054.txt.gz
Theta_e
309 311 311 310 311 312 312 313 315 316 317 318 319 322 324 323 322 321 320 320 319 318
307 307 307 307 309 311 311 310 312 313 314 314 315 316 316 316 315 314 314 313 315 314
305 305 306 306 306 306 307 307 308 310 310 310 311 312 313 312 312 311 310 310 310 310
304 304 304 304 304 304 304 304 305 305 306 306 307 309 309 307 307 307 306 306 307 305
302 302 303 302 302 302 302 302 302 303 303 303 303 304 305 304 303 304 303 303 303 301
300 301 301 301 301 301 301 301 300 300 300 300 300 300 301 300 299 299 299 299 299 299
299 300 300 301 300 300 299 297 297 298 298 297 297 296 296 296 296 296 296 296 296 296
299 299 299 297 296 296 295 295 295 295 296 296 295 294 294 294 294 294 293 293 293 295
298 297 296 295 294 294 293 293 294 294 294 294 294 295 294 294 293 293 292 291 291 292
296 295 294 293 293 292 292 293 293 294 294 293 293 293 292 291 291 290 289 290 290 289
295 294 293 292 292 291 292 292 292 292 292 292 292 291 289 288 287 287 286 287 287 288
294 292 291 291 291 291 290 289 288 290 289 289 290 289 287 286 287 286 286 287 287 288
294 292 291 290 289 290 289 287 287 286 287 287 288 287 286 285 285 284 283 284 285 286
293 292 291 289 289 288 288 287 286 286 285 286 288 289 288 286 284 284 283 283 284 285

GFSNIL_sfc_thetae_057.txt.gz
Theta_e
311 312 311 311 311 311 312 313 315 315 316 317 318 320 321 323 321 321 322 321 318 317
309 309 309 309 310 311 312 311 311 313 314 315 316 317 316 316 315 315 314 314 314 313
307 307 307 307 307 308 308 308 309 310 311 312 312 313 314 313 313 312 311 311 311 310
306 305 306 305 306 306 306 306 306 307 307 308 308 309 311 310 309 309 308 309 308 307
304 304 304 304 304 304 303 304 303 304 304 305 305 306 307 306 306 305 305 305 305 303
303 303 303 303 303 302 302 302 302 302 302 302 302 302 303 303 302 302 301 301 301 300
301 302 302 303 302 302 301 300 299 299 299 299 299 298 298 299 299 298 297 297 297 297
301 301 301 301 299 298 297 297 296 296 297 297 296 296 296 296 296 295 294 294 294 295
300 299 299 298 297 296 295 295 295 294 295 295 295 295 295 295 294 294 293 291 292 292
299 297 296 296 295 294 293 293 293 294 294 294 293 294 294 294 293 292 291 291 291 290
297 295 295 294 294 293 293 293 293 293 293 292 292 292 291 290 289 288 288 288 288 289
296 295 294 293 292 292 292 290 289 292 291 290 290 290 288 288 287 286 286 286 287 288
296 295 293 292 291 291 290 288 288 287 288 289 288 288 287 286 286 284 283 284 285 287
295 294 293 292 290 289 288 287 288 287 286 287 287 287 287 286 284 283 282 282 283 284

GFSNIL_sfc_thetae_060.txt.gz
Theta_e
308 308 308 307 307 307 307 308 310 310 311 312 314 315 316 317 318 317 317 317 315 316
306 306 306 305 306 306 307 308 306 308 309 310 311 312 314 314 313 313 313 313 313 312
303 304 304 304 303 304 304 304 304 305 306 307 308 308 311 311 312 310 309 310 309 308
303 303 303 302 302 302 302 301 302 303 303 303 304 304 308 308 308 308 307 307 307 305
302 302 301 301 301 300 300 300 300 300 300 301 301 301 302 304 304 304 303 304 303 300
300 300 299 300 300 300 300 299 299 298 298 298 298 298 297 299 298 298 297 297 298 296
299 299 299 300 300 299 298 297 295 295 296 296 295 295 295 295 294 293 294 294 294 294
297 298 298 298 297 296 295 294 294 295 296 296 296 296 295 296 295 294 293 293 294 292
297 297 296 296 294 294 292 292 293 294 294 294 295 296 296 295 294 293 292 291 291 291
296 295 295 296 295 293 290 291 293 293 294 293 293 295 295 295 292 290 290 289 289 289
295 294 295 294 293 292 290 292 292 293 292 292 292 293 293 291 285 283 284 285 285 286
294 293 294 292 292 292 291 290 288 291 290 288 289 291 290 286 280 280 281 283 285 285
294 294 291 292 291 291 290 288 287 286 286 289 284 289 288 286 282 281 281 282 284 287
293 293 292 291 291 288 287 287 286 285 283 283 286 285 288 287 282 281 280 280 280 283

GFSNIL_sfc_thetae_063.txt.gz
Theta_e
307 307 307 308 307 307 307 308 309 310 310 310 311 312 313 313 314 313 315 316 317 316
306 306 306 305 305 305 306 306 305 306 307 308 309 309 310 312 312 311 312 312 313 312
305 304 304 303 304 304 304 304 304 304 305 305 306 306 308 310 312 311 309 310 309 308
302 303 303 301 301 302 302 302 301 302 302 302 302 302 302 308 308 307 307 307 307 304
300 300 300 300 300 300 300 300 301 300 300 300 299 299 299 304 305 304 304 304 303 301
298 298 299 299 300 299 299 299 299 298 298 298 297 296 296 300 300 299 299 299 299 298
297 297 297 298 298 299 297 296 295 295 296 296 295 295 295 295 295 294 294 294 293 294
296 297 297 296 295 295 294 294 294 294 295 295 296 296 295 296 295 294 293 293 293 294
295 295 295 294 293 292 291 291 292 292 293 294 295 296 297 296 294 293 292 291 292 293
295 294 294 293 292 290 289 289 290 291 293 293 294 296 297 296 293 291 290 289 289 289
294 293 293 293 293 292 290 288 290 292 293 292 293 294 295 293 289 288 288 288 286 284
293 292 291 291 292 292 291 291 289 291 290 289 289 292 292 285 280 281 281 283 283 285
293 292 290 291 292 291 291 289 289 287 287 290 287 291 290 285 281 281 281 281 283 289
292 291 290 290 289 289 288 288 287 286 286 286 285 285 289 289 282 281 279 280 280 283

GFSNIL_sfc_thetae_066.txt.gz
Theta_e
315 312 311 311 309 308 307 308 309 310 310 310 311 311 310 311 311 311 311 310 312 313
309 311 309 308 307 306 307 307 307 307 308 308 308 308 307 308 308 308 307 308 309 312
304 305 305 305 305 306 306 306 304 304 305 306 305 305 305 306 309 310 309 309 309 309
302 303 302 302 303 302 303 303 302 303 302 302 302 302 301 303 308 307 308 307 307 306
302 301 300 299 300 300 299 300 300 299 299 299 299 299 298 299 303 305 304 304 304 302
298 299 298 299 298 298 298 297 297 297 297 297 297 296 296 298 300 301 301 301 301 299
296 296 297 297 297 297 297 295 294 294 296 295 294 294 294 295 295 295 295 295 296 297
296 296 296 296 295 294 294 293 292 293 294 293 293 294 293 295 295 294 294 294 294 295
295 294 294 293 292 292 291 291 291 291 292 291 294 296 297 296 295 294 293 292 293 294
294 293 293 292 291 290 288 288 289 289 290 290 291 296 297 297 294 292 291 290 290 290
294 293 292 291 290 289 288 287 287 289 290 289 293 295 296 295 290 289 289 289 288 287
294 292 291 290 289 289 290 290 289 292 291 289 290 294 293 289 286 286 285 286 286 284
293 292 291 290 288 289 292 290 289 287 288 290 287 293 292 285 280 280 280 281 283 289
292 291 290 288 288 289 289 289 288 287 287 287 288 287 292 289 282 281 280 280 282 283

GFSNIL_sfc_thetae_069.txt.gz
Theta_e
319 316 317 316 315 313 311 311 312 311 311 311 311 311 310 309 309 311 310 309 309 309
311 312 312 314 313 311 312 312 309 309 308 308 309 307 307 307 307 307 306 306 306 307
303 305 305 306 307 306 306 306 305 305 305 305 305 305 305 305 307 307 307 306 305 306
301 302 302 302 303 304 304 303 303 302 302 301 302 300 299 300 302 304 304 305 307 307
301 300 301 301 301 302 301 301 300 299 299 298 298 297 297 297 298 300 302 305 304 303
298 298 298 299 300 300 300 300 299 298 297 297 297 296 295 295 297 298 299 301 302 301
296 296 296 297 297 297 297 296 295 295 295 295 294 294 293 293 293 293 294 296 297 298
296 296 295 295 295 295 294 293 292 292 292 292 293 293 292 293 292 292 294 294 295 295
295 294 294 293 293 292 291 290 290 290 291 290 293 296 297 296 292 294 293 292 293 295
294 293 293 292 291 290 289 288 288 289 289 289 290 296 297 298 294 293 292 290 291 291
294 292 292 291 290 288 287 287 287 288 289 288 290 296 297 296 291 290 290 289 289 288
293 292 291 290 289 288 287 287 286 290 292 290 287 295 295 291 287 287 287 288 287 286
293 292 291 290 288 288 288 288 289 288 290 291 287 294 294 289 285 285 284 284 284 290
292 292 291 288 287 286 287 288 288 288 287 288 289 289 294 291 282 282 280 280 280 282

GFSNIL_sfc_thetae_072.txt.gz
Theta_e
316 318 318 319 319 318 317 316 315 314 313 311 312 311 311 310 309 309 309 310 310 311
309 311 311 313 314 314 315 315 313 312 309 309 309 308 308 307 307 307 307 306 306 307
304 306 308 308 309 310 311 309 308 306 307 307 306 305 305 304 305 305 305 306 305 305
301 302 302 303 303 304 304 304 304 303 303 303 302 301 300 300 301 301 302 303 303 304
300 300 300 300 301 303 302 302 302 301 300 300 299 298 297 297 297 297 298 300 301 302
298 298 298 298 299 300 299 299 299 299 298 298 297 296 295 295 295 295 296 297 298 302
296 296 296 297 297 297 297 296 295 296 296 295 294 293 293 292 292 292 292 294 294 298
296 295 295 295 295 295 294 293 293 292 292 292 292 293 291 291 291 291 291 292 294 296
295 294 294 293 293 292 291 291 290 290 291 290 293 296 297 295 291 291 291 292 293 295
294 293 293 292 291 290 289 288 289 289 289 289 289 296 297 298 294 291 292 291 292 292
293 292 292 291 290 289 288 288 287 288 288 288 290 296 297 298 292 289 291 290 290 290
292 291 291 290 289 288 287 286 285 288 287 287 289 295 296 291 288 288 288 289 289 288
292 291 291 291 288 287 287 287 288 287 287 291 289 294 296 292 287 286 286 286 286 291
291 290 290 288 287 287 286 288 288 288 287 288 290 290 295 294 285 284 284 284 283 283

GFSNIL_sfc_thetae_075.txt.gz
Theta_e
319 321 322 322 322 322 321 320 319 317 316 315 313 313 313 313 313 314 314 313 313 314
311 315 316 317 319 319 319 318 318 318 316 313 312 311 312 312 311 312 312 312 312 311
306 309 311 313 314 315 316 316 313 312 310 310 310 310 309 308 308 309 310 310 310 309
305 305 306 308 309 310 310 309 309 308 307 306 305 305 304 305 305 305 306 307 308 308
303 303 304 304 306 306 306 307 307 305 305 304 302 302 302 301 301 301 302 303 304 305
301 301 302 302 303 303 303 302 303 303 301 300 301 300 300 300 299 300 300 300 301 303
299 300 300 301 301 301 302 300 300 300 299 299 299 298 297 297 297 297 297 297 298 299
298 299 299 299 299 299 299 299 298 297 297 297 297 297 297 297 297 296 296 296 297 298
297 297 298 297 297 297 296 296 296 296 295 295 295 298 298 296 295 295 295 295 296 297
296 296 296 296 296 295 295 294 294 294 295 295 295 298 298 298 296 295 295 295 294 294
295 295 295 295 295 294 293 293 293 293 293 294 293 297 298 298 297 295 294 293 293 292
294 294 294 293 294 293 292 292 290 292 292 292 292 296 297 295 292 291 292 292 292 290
293 293 293 293 292 292 292 290 291 289 290 292 291 296 297 294 291 290 290 289 288 292
293 292 292 292 291 290 290 290 290 289 289 290 293 294 297 296 290 290 289 287 286 286

GFSNIL_sfc_thetae_078.txt.gz
Theta_e
324 326 327 329 328 329 326 326 325 324 323 321 319 316 315 315 314 315 315 316 316 317
314 317 320 322 325 326 326 325 324 323 321 319 319 317 316 314 314 315 316 316 317 315
309 311 314 317 319 320 322 321 321 320 318 316 316 315 314 313 313 312 313 314 313 313
308 309 310 311 314 316 317 316 314 313 314 314 313 312 311 310 310 310 310 311 311 311
308 308 307 308 309 311 313 314 311 309 310 310 309 309 308 306 306 306 305 306 307 308
304 306 307 307 308 308 310 311 312 309 308 308 307 306 306 306 305 304 305 306 305 306
302 303 305 306 307 307 308 308 308 308 307 306 305 305 304 303 303 302 303 303 304 304
301 303 303 303 305 305 305 306 306 305 304 304 303 302 302 302 302 302 302 301 302 302
300 301 302 303 303 303 303 304 303 302 302 301 300 299 300 302 300 300 300 299 300 301
299 299 300 301 301 301 302 302 301 301 301 300 301 299 300 299 300 300 300 299 299 299
298 298 299 300 300 301 302 301 300 300 300 300 300 299 300 299 300 300 299 299 299 298
297 297 297 298 299 301 300 299 299 300 299 299 299 297 298 299 298 297 297 297 297 296
296 296 296 297 298 299 298 298 298 294 298 297 298 297 298 298 295 294 295 296 296 294
295 296 296 296 297 296 295 296 296 294 292 294 297 298 298 298 293 294 294 293 291 292

GFSNIL_sfc_thetae_081.txt.gz
Theta_e
323 325 329 329 328 327 327 328 328 327 327 326 325 322 320 318 317 317 316 315 315 315
313 316 319 323 325 327 327 326 326 325 324 323 321 319 318 317 316 315 315 315 315 314
309 310 312 316 318 321 323 322 323 322 321 320 318 317 316 316 316 315 315 315 315 315
309 309 309 310 312 315 318 319 319 318 317 316 315 316 316 315 314 313 313 312 312 312
306 308 308 308 310 311 312 315 314 313 313 314 315 314 312 310 310 309 309 309 309 310
304 305 305 307 308 309 309 311 314 310 309 309 310 310 310 309 307 307 307 307 306 307
302 303 304 305 306 307 308 308 310 311 308 307 307 307 306 306 305 304 304 305 305 305
302 303 303 304 304 305 306 306 307 308 307 306 304 304 305 304 303 302 302 303 303 303
301 301 301 302 302 303 304 305 305 305 305 304 303 303 302 304 303 303 302 301 301 302
299 299 300 301 302 302 302 304 304 304 303 303 303 301 301 301 302 301 301 300 300 300
297 297 299 299 300 301 302 302 302 302 303 302 302 301 301 300 300 300 300 299 299 299
295 295 296 297 298 298 299 300 300 301 301 301 301 300 300 300 298 296 297 298 298 298
295 295 295 296 296 297 297 297 298 297 298 300 299 299 299 299 297 295 295 297 296 298
293 293 295 296 296 295 294 295 295 296 296 295 298 299 298 299 297 294 294 294 293 294

GFSNIL_sfc_thetae_084.txt.gz
Theta_e
319 321 325 324 324 323 322 323 324 324 322 323 324 323 321 320 319 318 317 316 315 314
307 310 314 318 321 324 324 324 324 324 324 324 323 321 320 319 318 317 316 315 315 315
306 306 307 309 311 314 318 320 321 322 322 322 322 320 318 317 316 315 314 314 313 312
303 305 305 306 306 308 311 314 316 318 319 318 317 317 315 315 315 314 314 312 312 311
301 302 302 303 304 305 305 308 312 311 314 314 315 315 315 313 312 312 309 308 308 308
299 299 300 301 302 304 304 305 308 308 309 311 312 312 312 311 309 307 307 307 306 307
297 298 299 300 301 301 303 303 304 306 306 308 308 308 307 306 306 304 304 304 304 304
297 298 298 298 299 300 300 301 302 303 304 304 305 306 305 304 304 303 301 301 302 301
296 297 296 297 297 298 299 299 300 300 301 300 301 303 304 303 302 302 302 299 299 300
295 295 295 296 296 296 296 297 297 298 299 299 299 303 303 303 300 300 299 299 298 298
293 292 293 294 295 295 297 298 299 297 298 297 298 303 302 302 296 296 296 297 297 295
291 291 292 292 294 295 295 295 294 298 298 297 296 301 301 299 293 292 293 296 296 295
289 290 289 290 292 294 294 294 294 294 296 298 297 299 300 299 292 291 292 294 296 299
288 288 288 288 290 290 292 293 293 293 294 295 296 296 300 300 296 293 292 293 293 294

GFSNIL_sfc_thetae_087.txt.gz
Theta_e
315 318 322 323 322 322 321 321 321 322 322 322 322 322 323 322 321 320 319 318 316 315
308 311 310 314 319 322 323 323 323 323 323 323 323 324 322 321 319 318 318 318 317 316
303 304 306 309 309 312 315 317 319 319 321 322 322 322 321 320 320 318 318 317 316 315
300 301 302 303 304 305 306 308 311 312 314 317 318 318 318 317 316 316 315 315 315 314
299 299 300 300 301 303 303 304 306 309 309 311 315 316 315 314 314 314 313 313 313 311
297 297 297 298 300 301 301 302 303 306 307 307 311 313 314 314 313 313 313 311 311 309
295 296 296 297 298 299 300 299 300 301 304 305 307 309 309 309 308 308 308 308 308 306
295 296 296 296 296 297 298 298 299 299 300 302 304 305 306 306 305 304 304 304 305 305
294 294 294 295 295 296 296 296 297 297 298 298 300 303 305 304 302 303 302 301 302 302
292 292 292 293 293 293 294 295 295 295 296 296 297 302 304 304 299 299 300 299 299 299
289 289 291 291 291 292 294 294 295 295 297 297 297 301 302 303 297 296 296 296 296 296
288 287 288 288 289 290 290 292 293 294 295 295 296 300 300 300 293 292 292 294 295 295
287 286 286 286 287 288 289 290 291 290 292 294 295 298 299 299 294 292 293 292 294 298
286 285 285 285 285 285 286 288 287 287 288 289 292 295 298 298 297 295 294 294 293 294

GFSNIL_sfc_thetae_090.txt.gz
Theta_e
311 313 315 320 322 321 321 321 321 322 323 323 323 323 323 323 324 322 321 318 318 318
305 308 309 310 312 315 318 321 322 322 321 321 320 320 320 321 320 320 320 320 318 317
301 302 303 305 305 306 309 311 314 317 319 321 322 322 322 321 321 320 319 319 318 318
299 300 300 301 301 302 303 304 305 310 310 313 315 319 319 319 319 319 319 318 316 316
298 298 298 298 299 300 300 301 302 304 307 307 309 314 316 316 316 315 315 314 314 314
296 296 296 297 298 299 299 299 300 300 301 304 306 308 313 314 314 314 314 314 313 313
294 294 295 296 296 297 297 297 298 299 299 300 303 305 306 309 310 309 309 310 311 311
292 293 293 293 294 295 295 295 296 297 297 298 299 302 302 304 305 305 305 305 306 306
291 291 291 291 292 292 293 294 294 295 295 295 298 301 303 303 300 301 303 302 303 304
288 288 289 290 290 290 290 291 292 293 295 295 296 300 302 302 299 297 297 299 300 300
286 286 287 287 287 287 289 289 290 290 292 293 295 298 300 300 298 296 295 294 295 296
286 285 285 285 285 285 286 287 287 290 290 289 291 296 297 298 296 294 294 294 294 294
285 284 283 283 283 284 285 286 288 287 287 289 287 293 296 297 295 294 294 295 295 297
284 283 283 282 282 282 282 283 283 284 285 285 287 288 293 295 295 294 295 295 294 295

GFSNIL_sfc_thetae_093.txt.gz
Theta_e
308 311 312 313 315 319 320 320 322 322 322 322 323 323 322 322 323 323 322 322 322 322
302 304 305 307 307 309 312 313 318 321 321 322 322 322 322 322 322 322 322 322 321 320
299 300 302 303 302 303 305 307 309 312 314 316 319 321 321 320 321 320 320 320 319 319
298 298 299 299 299 300 301 302 302 305 308 309 311 314 317 318 319 319 319 319 318 318
296 297 296 297 297 299 299 300 300 300 302 304 307 308 312 314 315 315 315 316 316 315
293 294 294 295 296 297 297 297 298 298 298 299 301 304 306 310 312 313 314 315 314 314
290 291 291 292 293 294 295 295 295 296 296 297 298 300 301 303 305 308 309 310 311 312
289 289 290 290 291 292 292 292 293 294 294 295 296 298 299 299 300 301 303 304 306 307
287 287 287 288 288 289 289 290 291 291 292 292 295 299 301 300 297 298 298 301 303 304
285 285 285 286 286 286 286 287 288 289 290 290 291 296 298 298 297 295 295 295 297 299
285 284 284 284 284 284 285 285 286 286 288 288 290 293 295 297 296 296 296 294 293 294
284 283 283 283 282 282 283 283 283 286 286 286 286 292 293 294 293 293 294 296 296 294
284 283 282 282 281 282 282 282 283 283 283 286 284 290 292 291 292 292 293 294 296 297
283 282 282 281 281 280 280 280 280 281 281 282 284 285 291 292 288 289 290 292 293 295

GFSNIL_sfc_thetae_096.txt.gz
Theta_e
304 307 307 307 309 309 310 313 319 321 321 321 321 321 321 321 322 322 321 321 321 321
300 301 302 303 304 305 306 309 311 314 316 320 321 321 321 321 321 322 322 321 321 321
298 298 299 300 299 301 302 303 304 306 310 311 313 316 318 320 321 321 321 321 320 320
296 297 297 297 298 298 299 300 300 301 302 304 307 308 311 314 316 318 318 319 318 318
293 294 294 294 295 297 297 298 298 298 299 300 301 303 305 306 310 312 313 315 315 315
290 290 291 291 292 293 294 294 295 296 296 296 298 299 300 301 302 305 309 311 313 314
287 287 288 289 290 290 291 291 292 293 293 294 295 297 298 299 298 299 301 304 307 309
286 286 286 287 287 288 288 289 290 290 291 291 292 295 296 297 297 297 297 299 301 304
285 284 284 284 285 285 285 286 287 287 288 289 291 295 295 295 294 296 296 295 297 298
284 283 283 283 283 283 283 284 284 284 286 286 287 294 294 294 292 293 294 295 296 296
284 282 282 282 282 281 282 282 282 282 284 284 286 292 293 293 289 290 292 293 294 295
283 282 281 281 280 281 281 280 280 282 282 282 283 290 291 291 287 288 288 291 293 293
282 281 280 280 280 280 279 280 281 280 280 283 282 287 289 289 286 284 286 288 290 295
281 281 280 280 279 279 279 279 277 278 278 279 280 281 288 289 286 286 286 287 287 289

GFSNIL_sfc_thetae_099.txt.gz
Theta_e
302 303 304 304 305 305 306 307 309 313 320 321 322 322 321 321 321 322 321 320 321 321
299 299 299 301 302 302 303 305 305 307 310 312 313 316 320 321 320 320 321 321 321 320
297 298 298 299 298 299 300 301 302 302 304 305 308 310 312 313 315 318 321 321 320 321
294 294 295 295 295 297 298 298 298 299 300 300 302 304 306 307 309 310 312 315 318 319
292 292 292 293 293 294 294 295 295 295 297 298 299 301 301 301 302 303 305 308 311 313
289 290 289 290 291 292 292 292 293 294 293 294 296 298 299 300 299 300 301 301 303 306
288 288 288 289 289 289 290 290 290 291 292 293 294 295 295 296 297 297 298 299 300 302
287 287 287 287 287 288 288 289 289 289 290 290 291 293 294 294 294 294 295 297 298 299
287 286 286 286 286 286 286 287 287 287 287 288 289 292 294 294 292 293 293 292 295 297
286 286 285 285 285 285 285 286 286 286 286 286 287 290 293 293 292 291 291 292 293 293
286 285 285 285 284 285 285 285 285 285 285 285 285 289 291 291 291 290 290 291 291 292
285 284 284 284 283 283 284 283 283 284 284 283 284 288 289 289 289 288 289 290 291 290
283 283 283 283 283 283 283 283 284 283 283 283 283 285 287 288 288 287 288 289 289 290
283 282 282 282 282 282 282 282 281 281 282 281 282 283 287 288 287 287 287 287 287 287

GFSNIL_sfc_thetae_102.txt.gz
Theta_e
301 301 301 302 303 303 303 305 306 308 309 311 312 316 321 322 321 321 320 319 318 317
299 299 299 300 302 302 302 303 303 304 304 305 307 310 312 314 315 319 319 319 319 319
295 295 296 297 296 298 300 300 302 301 302 303 304 305 307 308 309 311 313 315 318 319
294 293 294 294 294 294 295 296 295 296 298 301 301 303 303 303 303 303 305 307 309 311
293 293 293 292 293 294 293 293 294 295 295 295 297 299 300 300 302 301 301 302 303 305
292 292 292 292 292 292 293 293 292 293 292 293 294 295 295 295 296 297 298 300 301 302
291 291 291 292 292 291 292 291 291 292 292 292 293 294 295 295 295 295 295 296 298 300
291 291 291 291 291 291 291 291 291 290 290 291 291 290 293 294 294 293 293 294 295 297
291 291 290 290 290 290 290 290 290 289 289 289 289 290 292 293 292 292 291 291 293 294
290 290 290 290 289 289 289 289 289 288 288 288 288 289 290 291 291 291 291 291 291 291
289 288 288 288 288 288 288 288 287 287 287 287 287 288 289 289 289 290 290 291 291 291
287 286 286 286 287 287 287 287 287 287 287 286 286 287 288 288 288 288 288 289 290 291
286 286 286 286 286 286 286 286 286 286 286 286 286 287 287 287 287 287 287 289 289 290
286 285 285 285 286 285 285 285 285 285 285 285 285 285 287 287 287 286 286 287 287 289

GFSNIL_sfc_thetae_105.txt.gz
Theta_e
302 302 302 301 302 302 302 303 304 304 305 306 306 307 310 311 314 320 320 319 319 319
297 297 297 298 299 302 301 300 302 303 303 303 304 305 305 306 305 309 310 314 316 318
294 295 295 295 294 295 295 297 297 297 298 300 302 303 304 303 304 304 305 306 307 310
294 293 293 293 293 294 294 293 293 294 294 295 296 297 297 299 300 301 302 303 303 305
293 293 292 292 292 293 293 293 293 293 293 293 294 295 295 294 295 295 296 297 300 302
292 292 292 292 292 292 292 292 292 292 291 291 292 292 293 294 294 294 295 295 296 297
292 292 292 292 292 292 292 291 291 291 291 290 291 290 291 292 293 293 293 294 294 295
292 292 292 292 291 291 291 290 290 290 290 290 290 289 289 290 291 291 292 292 292 294
291 291 291 291 290 290 290 290 289 289 289 288 288 291 291 290 289 289 290 290 291 292
290 289 289 289 289 288 288 288 288 288 288 287 288 290 290 290 288 288 289 290 290 290
289 288 288 287 287 287 288 287 287 287 287 287 287 289 289 289 287 288 288 289 289 289
287 286 286 286 286 287 287 287 287 287 287 286 287 289 289 288 287 287 287 288 289 289
287 286 285 286 286 287 286 286 286 286 286 287 286 288 288 287 286 285 286 287 288 291
286 286 286 285 286 286 285 285 285 284 285 285 286 286 287 287 285 285 285 285 286 287

GFSNIL_sfc_thetae_108.txt.gz
Theta_e
295 298 298 296 298 300 300 301 302 303 304 304 305 305 306 305 304 305 305 306 309 315
295 295 295 296 296 296 296 297 298 298 298 301 303 303 302 301 300 302 303 303 305 307
292 292 292 293 292 292 292 293 293 294 295 295 295 296 298 300 298 298 299 301 302 303
291 291 291 290 291 291 291 291 291 292 292 292 292 294 294 295 296 296 297 298 298 301
289 289 289 289 289 290 289 290 290 290 289 290 291 291 291 291 293 293 293 293 294 296
288 288 287 287 288 289 288 288 288 288 287 287 288 289 289 290 290 291 292 292 291 293
287 287 287 287 288 287 287 286 286 286 287 287 287 288 288 288 288 289 289 291 291 291
287 288 287 287 286 286 286 286 285 285 285 285 286 287 286 287 286 286 287 288 290 290
288 287 286 285 285 285 285 284 284 284 284 284 287 291 291 289 286 285 285 285 287 289
286 285 285 285 284 284 283 283 283 283 284 283 283 290 291 290 286 285 284 285 286 287
285 284 284 283 283 282 282 282 282 283 283 283 285 289 290 290 285 284 284 285 285 285
284 283 283 282 282 282 282 282 282 283 282 282 283 289 289 288 283 283 283 284 284 285
284 283 282 281 281 281 282 282 283 282 282 284 282 287 288 287 283 281 282 284 285 288
283 282 281 281 281 280 280 280 280 280 280 280 281 281 288 288 284 283 283 283 283 284

GFSNIL_sfc_thetae_111.txt.gz
Theta_e
296 296 296 297 296 296 296 298 299 298 299 300 303 303 302 300 300 301 301 301 301 303
293 293 294 294 295 296 295 294 295 295 295 295 296 297 298 299 297 299 299 299 299 300
290 289 290 291 290 291 291 292 292 293 293 293 293 294 295 295 296 295 298 298 297 298
288 288 288 288 287 288 288 288 288 289 288 288 289 289 290 290 292 292 292 293 294 295
286 286 285 286 286 287 286 287 287 287 286 286 287 287 287 286 287 288 289 290 292 292
286 285 285 285 286 286 285 285 285 285 285 285 286 286 286 287 286 286 287 287 288 290
285 285 285 285 285 285 285 284 284 284 284 285 285 285 286 286 286 285 286 286 286 288
286 286 285 284 284 284 284 284 284 283 284 284 284 286 286 285 285 284 284 285 286 287
286 285 284 283 283 283 283 282 282 282 283 283 286 290 291 290 285 284 284 283 284 285
285 284 283 283 282 282 281 281 281 282 282 282 282 289 290 290 285 284 283 283 283 284
284 283 282 282 281 281 281 281 281 281 282 281 283 289 289 290 284 282 282 283 283 282
283 282 281 280 280 280 280 280 280 281 281 280 281 287 288 287 281 282 281 283 283 284
282 281 280 280 279 280 280 280 281 280 280 282 279 285 287 287 282 280 281 282 283 286
281 280 280 279 279 278 278 278 277 278 277 278 280 280 287 287 283 282 282 282 281 283

GFSNIL_sfc_thetae_114.txt.gz
Theta_e
294 295 295 296 296 295 295 295 296 296 296 296 297 298 299 298 296 297 296 298 297 299
290 289 290 291 293 293 293 293 294 294 294 294 294 294 296 295 296 296 297 297 297 296
286 286 286 286 286 286 287 288 288 288 289 289 290 291 291 290 291 291 292 294 294 293
285 285 285 285 285 285 285 285 285 285 285 285 285 286 286 286 287 287 287 289 289 291
285 285 284 284 285 285 284 284 284 284 284 284 285 285 285 285 285 285 285 285 286 287
285 285 284 284 284 284 283 283 283 283 283 283 284 283 284 284 284 284 284 284 284 285
284 284 284 284 283 283 283 283 282 283 283 283 283 284 284 285 284 283 284 284 284 284
285 285 283 283 282 282 282 282 282 282 282 282 283 285 285 285 284 283 283 283 284 284
285 284 283 282 282 281 281 281 281 281 281 281 284 289 290 289 284 283 282 281 282 283
284 283 282 282 281 281 280 280 280 281 281 280 280 289 289 290 284 282 281 282 282 282
283 282 281 281 280 279 279 280 280 280 280 280 281 288 288 289 281 281 281 282 281 281
282 281 280 280 279 279 279 278 278 280 279 278 279 286 287 286 281 281 281 282 282 283
282 280 279 279 279 279 279 280 280 279 278 281 277 284 286 285 281 280 280 280 281 285
281 280 279 278 278 278 278 278 276 278 276 276 278 279 285 286 281 280 280 280 280 281

GFSNIL_sfc_thetae_117.txt.gz
Theta_e
290 291 291 291 293 293 294 294 294 294 294 294 294 296 296 297 296 298 297 296 296 296
286 286 286 286 287 287 287 289 288 288 288 288 289 291 291 291 289 290 291 293 293 292
284 284 284 284 284 284 285 285 285 285 285 286 286 287 286 286 287 286 287 288 288 290
284 284 284 284 284 284 283 283 283 283 284 283 283 284 284 285 285 285 284 285 285 286
284 284 284 283 284 283 282 283 283 283 283 283 283 283 283 283 284 283 283 283 283 283
284 284 283 283 283 283 282 282 282 282 282 282 283 282 282 283 283 283 283 283 282 282
284 284 283 283 282 282 282 281 281 281 282 282 282 283 283 284 283 283 283 283 283 282
284 284 283 282 282 282 281 281 281 281 281 281 282 284 284 284 283 282 282 282 282 283
284 284 282 281 281 281 280 280 280 280 280 280 283 287 290 288 283 282 281 280 281 282
284 283 282 281 280 280 279 279 279 279 279 279 279 288 288 289 281 281 280 281 281 282
283 282 281 280 279 279 278 278 278 278 279 278 280 286 288 288 281 280 280 281 280 280
282 281 280 280 278 278 278 277 278 279 278 277 278 285 286 286 281 281 280 280 281 281
282 280 279 278 278 278 277 279 280 280 278 280 277 283 286 285 281 279 280 280 281 285
280 280 279 278 277 277 277 278 276 277 277 276 277 278 285 286 281 280 280 280 280 281